Location: Atherton
(17.2661°S, 145.4859°E)
Time: 22:20:45
(UTC+10:00)

Transit 2A - Pass Details

Date: 20 June 2025
Orbit: 598 x 948 km, 66.7° (Epoch: 19 July)

Event Time Altitude Azimuth Distance (km) Brightness Sun altitude
Rises 21:37:04 0° 204° (SSW) 3,374 - -51.5°
Reaches altitude 10° 21:39:38 10° 205° (SSW) 2,380 - -52.1°
Maximum altitude 21:45:03 76° 290° (WNW) 765 - -53.3°
Drops below altitude 10° 21:49:53 10° 15° (NNE) 2,128 - -54.4°
Sets 21:52:05 0° 17° (NNE) 2,990 - -54.9°
